Regional Weather Roundup
Issued by NWS

Home | Current Version | Previous Version | Text Only | Print | Product List | Glossary Off
Versions: 1 2 3 4 5 6 7 8 9 10 11 12 13 14 15 16 17 18 19 20 21 22 23 24 25 26 27 28 29 30 31 32 33 34 35 36 37 38 39 40 41 42 43 44 45 46 47 48 49 50

000
ASUS45 KABQ 010310
RWRNM
NEW MEXICO REGIONAL WEATHER ROUNDUP
NATIONAL WEATHER SERVICE ALBUQUERQUE NM
900 PM MDT SAT APR 30 2016

NOTE: "FAIR" MEANS FEW OR NO CLOUDS BELOW 12,000 FEET AGL WITH NO
       SIGNIFICANT WEATHER OR OBSTRUCTIONS TO VISION.

      THIS PRODUCT IS RELEASED AS TWO VERSIONS.  ONE VERSION NEAR
      THE TOP OF THE HOUR CONTAINING PRELIMINARY DATA FROM ALBUQUERQUE
      AND OTHER STATIONS.  A FINAL VERSION WITH ADDITIONAL DATA IS
      ISSUED ABOUT 10 MINUTES AFTER THE HOUR.

NMZ501-503-504-510>518-010400-
NORTHWEST PLATEAU/NORTHCENTRAL MOUNTAINS

CITY           SKY/WX    TMP DP  RH WIND       PRES   REMARKS
FARMINGTON     FAIR      47  32  56 SW3       29.86R
LOS ALAMOS     MOCLDY    49  29  46 S8        29.95R
SANTA FE       LGT RAIN  47  38  71 S17G23    29.95R
TAOS           FAIR      43  28  56 SE20G25   29.93R
ANGEL FIRE     CLOUDY    33  28  80 N10       30.03R WCI  25

$$
NMZ402-403-502-505>509-010400-
WESTCENTRAL MOUNTAINS/SOUTHWEST MOUNTAINS

CITY           SKY/WX    TMP DP  RH WIND       PRES   REMARKS
GALLUP         RAIN      40  36  86 E13       29.93R WCI  32
GRANTS         RAIN      39  38  94 NW8       29.96R WCI  34
SILVER CITY      N/A     59  27  29 NW15      29.81R

$$
NMZ407-409-411-412-010400-
SOUTHERN DESERTS

CITY           SKY/WX    TMP DP  RH WIND       PRES   REMARKS
LORDSBURG      CLOUDY    68  23  18 W13       29.73R
DEMING         FAIR      68  17  14 SW9       29.74R
LAS CRUCES     FAIR      67  15  13 SE7       29.77R
HOLLOMAN AFB   FAIR      67  18  15 SE6       29.75R
ALAMOGORDO     FAIR      61  19  20 SE9       29.77R
T OR C         MOCLDY    67  18  15 SW8       29.76R

$$
NMZ519>523-010400-
CENTRAL VALLEYS/CENTRAL HIGHLANDS

CITY           SKY/WX    TMP DP  RH WIND       PRES   REMARKS
ALBUQUERQUE    CLOUDY    51  44  77 N13       29.89S
MORIARTY ARPT  MOCLDY    45  39  81 N6        29.95R
CLINES CORNERS CLOUDY    43  37  79 E13       29.95R
BELEN          CLOUDY    51  39  63 N10       29.87S
SOCORRO        CLOUDY    58  32  37 N16G22    29.83R

$$
NMZ524>526-539-540-010400-
SOUTHCENTRAL MOUNTAINS

CITY           SKY/WX    TMP DP  RH WIND       PRES   REMARKS
RUIDOSO          N/A     50  23  34 SE9       29.94R

$$
NMZ527>531-010400-
NORTHEAST HIGHLANDS/NORTHEAST PLAINS

CITY           SKY/WX    TMP DP  RH WIND       PRES   REMARKS
LAS VEGAS      LGT SNOW  32  32 100 NE13      30.03R FOG     WCI  22
RATON          CLOUDY    36  25  64 N17       30.05R WCI  26
CLAYTON        CLOUDY    41  28  60 N21G32    30.04R

$$
NMZ532>537-010400-
EASTCENTRAL PLAINS

CITY           SKY/WX    TMP DP  RH WIND       PRES   REMARKS
TUCUMCARI      RAIN      46  37  71 NE24G32   30.01R
CANNON AFB     NOT AVBL
CLOVIS AIRPORT MOCLDY    54  39  58 NE20G26   29.95R

$$
NMZ028-029-538-010400-
SOUTHEAST PLAINS

CITY           SKY/WX    TMP DP  RH WIND       PRES   REMARKS
ROSWELL        FAIR      67  32  27 N16       29.78R
ARTESIA        FAIR      66  23  19 SW10      29.77R
CARLSBAD       FAIR      66  20  17 NW3       29.75R
HOBBS          FAIR      68  27  21 E8        29.82R


$$




USA.gov is the U.S. government's official web portal to all federal, state and local government web resources and services.